Home > Weather > Pirmasens > Past weeks

Flag for Germany Past Weather in Pirmasens, Rhineland-Palatinate, Germany — Yesterday and Last 2 Weeks

Now
64 °F

Light rain. Broken clouds.


Feels Like: 64 °F
Forecast: 50 / 60 °F
Wind: 10 mph from South

Location: Ramstein

Current Time: May 30, 2016 at 4:42:15 PM

Latest Report: May 30, 2016 at 4:00 PM


Visibility: N/A

Pressure: 29.63 "Hg

Humidity: 88%

Dew Point: 61 °F

Location of PirmasensLocation

Past Weather in Pirmasens — Graph

°F

Pirmasens Temperature Yesterday

Maximum temperature yesterday: 81 °F (at 12:58 PM)
Minimum temperature yesterday: 54 °F (at 12:58 AM)
Average temperature yesterday: 63 °F

High & Low Weather Summary for the Past Weeks

 TemperatureHumidityPressure
High81 °F (May 29, 12:58 PM)100% (May 16, 5:58 AM)30.18 "Hg (May 16, 5:58 AM)
Low37 °F (May 20, 4:58 AM)35% (May 22, 1:58 PM)29.59 "Hg (May 30, 7:58 AM)
Average57 °F82%29.94 "Hg
* Reported May 15 2:58 PM — May 30 2:58 PM, Pirmasens, Weather by CustomWeather, © 2016

Note: Actual official high and low records may vary slightly from our data, if they occured in-between our weather recording intervals... More about our weather records

Advertising

Pirmasens Weather History for the Previous 24 Hours

Scroll right to see more
 ConditionsComfort  
Time TempWeatherWind HumidityBarometerVisibility
2:58 PM
Mon, May 30
64 °FBroken clouds.9 mph88%29.61 "HgN/A
2:03 PM63 °FLight rain. Broken clouds.10 mph94%29.62 "HgN/A
1:58 PM64 °FBroken clouds.7 mph88%29.61 "HgN/A
12:58 PM63 °FMore clouds than sun.6 mph96%29.60 "HgN/A
12:04 PM61 °FBroken clouds.8 mph100%29.60 "HgN/A
11:58 AM63 °FLight rain. Partly sunny.7 mph94%29.60 "HgN/A
11:03 AM61 °FLight rain. Cloudy.6 mph100%29.60 "HgN/A
9:58 AM59 °FMore clouds than sun.8 mph100%29.59 "HgN/A
9:03 AM59 °FLight rain. Partly sunny.10 mph100%29.60 "HgN/A
7:58 AM58 °FLight rain. More clouds than sun.13 mph100%29.59 "HgN/A
6:58 AM59 °FRain. Fog.12 mph100%29.60 "Hg5 mi
6:00 AM59 °FLight rain. Fog.8 mph100%29.61 "Hg4 mi
5:58 AM59 °FRain. Fog.7 mph100%29.60 "Hg4 mi
5:02 AM59 °FRain. Fog.9 mph100%29.61 "Hg6 mi
4:58 AM60 °FRain. Fog.9 mph100%29.60 "Hg6 mi
4:04 AM61 °FMostly cloudy.10 mph100%29.62 "HgN/A
3:03 AM59 °FLight rain. Fog.7 mph100%29.64 "Hg6 mi
2:58 AM61 °FRain. Fog.7 mph100%29.63 "Hg5 mi
1:58 AM60 °FRain. Fog.2 mph100%29.66 "Hg6 mi
12:58 AM60 °FOvercast.6 mph100%29.67 "HgN/A
11:58 PM
Sun, May 29
61 °FRain. Fog.5 mph100%29.69 "Hg5 mi
11:01 PM61 °FPassing clouds.No wind100%29.71 "HgN/A
10:58 PM62 °FLight rain. Passing clouds.No wind100%29.70 "HgN/A
10:04 PM63 °FSunny.No wind100%29.71 "HgN/A
8:58 PM63 °FScattered clouds.No wind100%29.67 "HgN/A
7:58 PM64 °FLight rain. Partly sunny.No wind100%29.67 "HgN/A
6:58 PM68 °FLight rain. Scattered clouds.2 mph79%29.67 "HgN/A
5:58 PM71 °FPassing clouds.No wind63%29.66 "HgN/A
4:58 PM71 °FOvercast.2 mph66%29.67 "HgN/A
Weather by CustomWeather, © 2016

See weather overviewHow to use our weather pages